Regional Weather Roundup
Issued by NWS Kansas City/Pleasant Hill, MO

Home | Current Version | Previous Version | Graphics & Text | Print | Product List | Glossary Off
Versions: 1 2 3 4 5 6 7 8 9 10 11 12 13 14 15 16 17 18 19 20 21 22 23 24 25 26 27 28 29 30 31 32 33 34 35 36 37 38 39 40 41 42 43 44 45 46 47 48 49 50

000
ASUS43 KEAX 251804
RWREAX

WEATHER ROUNDUP FOR EASTERN KANSAS AND NORTHWEST MISSOURI
NATIONAL WEATHER SERVICE KANSAS CITY/PLEASANT HILL MO
100 PM CDT FRI JUL 25 2014

KSZ040-057-103>105-MOZ028-029-037-043-251900-
...KANSAS CITY METROPOLITAN AREA...

CITY           SKY/WX    TMP DP  RH WIND       PRES   REMARKS
K.C. INTL      MOSUNNY   90  73  57 SW10      29.85R HX  98
6HR MIN TEMP:  73; 6HR MAX TEMP:  90;

K.C. DOWNTOWN  SUNNY     94  71  47 S18       29.83S HX 101
6HR MIN TEMP:  74; 6HR MAX TEMP:  94; 6HR PCP: TRACE;

LEES SUMMIT    SUNNY     88  72  58 S17G25    29.86F HX  94
6HR MIN TEMP:  70; 6HR MAX TEMP:  89;

OLATHE - IXD   MOSUNNY   93  70  46 S21G30    29.85F HX  99
6HR MIN TEMP:  70; 6HR MAX TEMP:  94;

OLATHE - OJC   SUNNY     91  70  49 SW14      29.85F HX  96
6HR MIN TEMP:  70; 6HR MAX TEMP:  92;

LAWRENCE       MOSUNNY   93  71  48 S13       29.82F HX 100

$$

MOZ001>008-011>017-020>025-030>033-038>040-044>046-053-054-251900-
...NORTHERN AND CENTRAL MISSOURI...

CITY           SKY/WX    TMP DP  RH WIND       PRES   REMARKS
ST. JOSEPH     MOSUNNY   89  74  60 S15       29.81F HX  98
6HR MIN TEMP:  72; 6HR MAX TEMP:  90;

MOSBY          CLEAR     88  70  55 S13       29.85S HX  92
WHITEMAN AFB   PTSUNNY   88  62  42 S17       29.89S
6HR MIN TEMP:  68; 6HR MAX TEMP:  88;

CLINTON        MOSUNNY   88  73  62 SW14G20   29.91S HX  96
SEDALIA        PTSUNNY   88  72  58 S15       29.92F HX  94
6HR MIN TEMP:  69; 6HR MAX TEMP:  89;

WARSAW         NOT AVBL
MARSHALL       MOSUNNY   90  75  62 SW10G21   29.92S HAZE    HX 100
CHILLICOTHE      N/A     81  69  67 E10       29.89F
6HR MIN TEMP:  68; 6HR MAX TEMP:  82;

KIRKSVILLE     CLOUDY    65  62  90 E16       29.97F
6HR MIN TEMP:  62; 6HR MAX TEMP:  67; 6HR PCP:  0.11;


$$

MOZ041-047>049-056>058-063>065-088>090-097-251900-
...EASTERN AND SOUTHERN MISSOURI...

CITY           SKY/WX    TMP DP  RH WIND       PRES   REMARKS
ST. LOUIS INTL CLOUDY    74  58  57 SE5       30.04F
6HR MIN TEMP:  69; 6HR MAX TEMP:  76; 6HR PCP: TRACE;

SPIRIT OF STL  CLOUDY    71  61  70 E5        30.01F
COLUMBIA       CLOUDY    81  67  62 SE14      29.96F
JEFFERSON CITY CLOUDY    82  66  58 SE13      29.94F
HANNIBAL       TSTM      64  61  88 E8        30.06R
ROLLA          PTSUNNY   82  63  52 SE13      29.99F
LEBANON        MOSUNNY   86  68  54 S7        30.00S
OSAGE BEACH    MOSUNNY   88  70  55 S12       29.95F HX  92
SPRINGFIELD    SUNNY     85  70  60 SW15      29.98S
BRANSON        MOSUNNY   90  68  48 S13       30.01F HX  93
NEVADA         SUNNY     88  72  58 S15G25    29.92F HX  94
JOPLIN         SUNNY     89  70  53 SW15G23   29.95F HX  94
WEST PLAINS    PTSUNNY   80  63  55 SE10      30.05F

$$

IAZ060-094-KSZ022-034>040-054-083-096-NEZ052-066-093-251900-
...KANSAS...SOUTHEAST NEBRASKA AND IOWA...

CITY           SKY/WX    TMP DP  RH WIND       PRES   REMARKS
TOPEKA         MOSUNNY   98  70  40 SW15G28   29.80F HX 105
6HR MIN TEMP:  78; 6HR MAX TEMP:  98;

MANHATTAN      SUNNY    101  69  35 SW17      29.78S HX 107
EMPORIA        SUNNY     94  68  42 SW24G33   29.85F HX  98
CHANUTE        SUNNY     90  72  55 SW16      29.90F HX  97
WICHITA        MOSUNNY   96  67  38 SW23G31   29.84F HX 100
OMAHA          MOSUNNY   87  71  58 SE17      29.75S HX  93
LINCOLN        SUNNY     94  69  44 SW8       29.74F HX  99
FALLS CITY     SUNNY     96  73  47 S13       29.75F HX 105
LAMONI         MOSUNNY   73  63  70 SE12G23   29.86F
DES MOINES     CLOUDY    74  63  68 S22G30    29.84F

$$




USA.gov is the U.S. government's official web portal to all federal, state and local government web resources and services.